Flag for Germany Weather past 2 weeks in Niederkassel, North Rhine-Westphalia, Germany

Now
53 °F

Low clouds.


Feels Like: 50 °F
Forecast: 43 / 55 °F
Wind: 13 mph from Southwest

Location: Bonn-Hangelar

Current Time: Dec 18, 2014 at 6:42:20 PM

Latest Report: Dec 18, 2014 at 6:00 PM


Visibility: 19 mi

Pressure: 29.92 "Hg

Humidity: 90%

Dew point: 51 °F

Location of NiederkasselLocation

Historic Weather in Niederkassel — Graph

°F

Niederkassel temperature yesterday

Maximum temperature yesterday: 49 °F (at 11:00 PM)
Minimum temperature yesterday: 37 °F (at 2:00 AM)
Average temperature yesterday: 43 °F

Past Weeks' High & Low Weather Summary

 TemperatureHumidityPressure
High53 °F (Dec 18, 5:00 PM)100% (Dec 3, 5:00 PM)30.40 "Hg (Dec 3, 5:00 PM)
Low28 °F (Dec 3, 9:00 PM)73% (Dec 10, 3:00 AM)29.41 "Hg (Dec 12, 4:00 PM)
Average39 °F94%29.99 "Hg
* Reported Dec 3 5:00 PM — Dec 18 5:00 PM, Niederkassel, Weather by CustomWeather, © 2014

Note: Actual official high and low records may vary slightly from our data, if they occured in-between our weather recording intervals... More about our weather records

Advertising

Niederkassel weather history for previous 24 hours

 ConditionsComfort  
Time TempWeatherWind HumidityBarometerVisibility
5:00 PM
Dec 18
53 °FLow clouds.12 mph94%29.90 "Hg11 mi
4:00 PM53 °FDrizzle. Low clouds.12 mph97%29.90 "Hg6 mi
3:00 PM52 °FDrizzle. Low clouds.10 mph97%29.88 "Hg3 mi
2:00 PM52 °FDrizzle. Low clouds.12 mph97%29.88 "Hg3 mi
1:00 PM52 °FDrizzle. Low clouds.10 mph98%29.88 "Hg4 mi
12:00 PM52 °FDrizzle. Low clouds.9 mph97%29.88 "Hg5 mi
11:00 AM51 °FPassing clouds.7 mph98%29.89 "Hg13 mi
10:00 AM51 °FLow clouds.10 mph97%29.87 "Hg5 mi
9:00 AM51 °FDrizzle. Low clouds.9 mph98%29.86 "Hg2 mi
8:00 AM50 °FDrizzle. Low clouds.7 mph99%29.85 "Hg2 mi
7:00 AM50 °FRain. Low clouds.7 mph100%29.85 "Hg3 mi
6:00 AM49 °FRain. Low clouds.8 mph99%29.83 "Hg2 mi
5:00 AM50 °FDrizzle. Low clouds.9 mph98%29.84 "Hg2 mi
4:00 AM49 °FLow clouds.8 mph97%29.84 "Hg14 mi
3:00 AM49 °FLow clouds.7 mph99%29.85 "Hg3 mi
2:00 AM49 °FLow clouds.7 mph97%29.86 "Hg3 mi
1:00 AM49 °FLow clouds.6 mph98%29.86 "Hg2 mi
12:00 AM49 °FDrizzle. Low clouds.6 mph97%29.85 "Hg2 mi
11:00 PM
Dec 17
49 °FDrizzle. Low clouds.7 mph99%29.84 "Hg2 mi
10:00 PM49 °FLow clouds.7 mph100%29.83 "Hg2 mi
9:00 PM49 °FDrizzle. Low clouds.8 mph100%29.81 "Hg2 mi
8:00 PM48 °FDrizzle. Low clouds.8 mph100%29.79 "Hg1 mi
7:00 PM48 °FDrizzle. Low clouds.7 mph100%29.76 "Hg1 mi
6:00 PM47 °FDrizzle. Dense fog.7 mph100%29.74 "Hg1 mi
Weather by CustomWeather, © 2014

See weather overviewHow to use our weather pages